Location: River House Observatory
(37.8577°N, 76.3548°W)
Time: 10:29:32
(UTC-05:00)

NOSS 3-1 (C) - Visible Passes

Search period start: 16 January 2018 00:00
Search period end: 26 January 2018 00:00
Orbit: 812 x 1397 km, 63.4° (Epoch: 10 January)

Date Brightness Start Highest point End Pass type
(mag) Time Alt. Az. Time Alt. Az. Time Alt. Az.
16 Jan 6.7 05:37:59 10° ESE 05:39:32 11° ESE 05:41:08 10° E visible
17 Jan 4.2 06:38:36 10° SSW 06:44:00 54° ESE 06:50:02 10° NE visible
17 Jan 7.0 17:54:53 10° WNW 17:59:51 18° WSW 18:05:01 10° SW visible
18 Jan 5.3 05:54:13 10° S 05:59:02 30° ESE 06:04:14 10° NE visible
19 Jan 6.1 05:10:48 10° SE 05:14:11 16° ESE 05:17:45 10° ENE visible
20 Jan 3.6 06:13:18 10° SSW 06:18:51 74° ESE 06:25:06 10° NE visible
21 Jan 4.5 05:28:35 10° S 05:33:47 42° ESE 05:39:30 10° NE visible
22 Jan 5.5 04:44:34 10° SSE 04:48:52 23° ESE 04:53:28 10° ENE visible
22 Jan 3.5 06:33:39 10° SW 06:39:08 50° NW 06:45:19 10° NNE visible
23 Jan 6.1 04:02:04 10° SE 04:04:05 12° ESE 04:06:10 10° E visible
23 Jan 3.2 05:48:09 10° SW 05:53:46 83° WNW 06:00:05 10° NNE visible
24 Jan 3.8 05:03:08 10° SSW 05:08:35 57° ESE 05:14:39 10° NE visible
25 Jan 4.8 04:21:11 23° SSE 04:23:35 32° ESE 04:28:53 10° NE visible
25 Jan 3.8 06:08:54 10° WSW 06:14:12 38° NW 06:20:09 10° NNE visible
